Location: Banksville Park
(38.5557°N, 75.1182°W)
Time: 01:19:43
(UTC+00:00)

USA 281 - Pass Details

Date: 19 September 2020
Orbit: 1079 x 1080 km, 106.0° (Epoch: 28 October)

Event Time Altitude Azimuth Distance (km) Brightness Sun altitude
Rises 10:05:35 0° 29° (NNE) 3,884 6.7 -8.7°
Reaches altitude 10° 10:08:15 10° 35° (NE) 2,924 6.2 -8.2°
Maximum altitude 10:14:32 47° 108° (ESE) 1,406 4.4 -7.0°
Drops below altitude 10° 10:20:46 10° 180° (S) 2,908 5.4 -5.8°
Sets 10:23:23 0° 186° (S) 3,861 6.0 -5.2°
